STARLINK-31912, 59656

Orbit data source: Space-Track

STARLINK-31912, 59656 is a payload satellite owned by SpaceX/Seattle (US) in LEO that was launched on Mon, 06 May 2024 UTC via an FALCON 9 launch vehicle from the Air Force Eastern Test Range (AFETR). Payload-class satellites include a variety of spacecraft equipped with specific instruments for various scientific and technological missions. These include communications satellites like Starlink; space stations such as the ISS; scientific satellites like the Hubble; Earth observation satellites from companies like Planet Labs, Umbra, and HawkEye 360; GPS; miniature CubeSats for education and research; and military/defense satellites.

Loading next visibility...
Identifier
59656, 2024-084C
Orbit
LEO
Country
Flag of USUS
Related business
Manufacturer
SpaceX/Seattle
Mission
Operational Commercial Communications
Bus & Motor
STARLINK V2M, Unknown motor
Mass
730 kg wet, ~700 kg dry
Launch date (UTC)
2024-05-06 (1 year ago)
Launch vehicle
FALCON 9
Launch site
Air Force Eastern Test Range (AFETR)
Object type
Payload
Rocket body
Debris
Shape & HBR
Box + 2 Pan, 17.7 m
Radar Cross Section
33.884 m², Large (>1 m²)

Expand to show TLE details & history
Last TLE update: 7 hours ago

TLE from 7 hours ago
0 STARLINK-31912
1 59656U 24084C   25288.61582598  .00021826  00000-0  80056-3 0  9999
2 59656  42.9989 141.3015 0001373 269.8509  90.2186 15.27570105 82180
Epoch: 2025-10-15T14:46Z
TLE epoch observation values (Epoch: 2025-10-15T14:46:47.364Z)
Latitude
0.00002°
Longitude
-104.78318°
Altitude
482.858 km
Speed
7.626 km/s
True Right ascension
09h 25m 12s
True Declination
0° 00' 00"
Sunlit
Object was in daylight at epoch
Visualization orbit readout
Latitude
Unknown
Longitude
Unknown
Altitude
Unknown
Speed
Unknown
Apparent Right ascension
Unknown
Apparent Declination
Unknown
Sunlit
N/A
Visualization observer readout
Local Sidereal Time
15:59:43
Azimuth
Unknown
Elevation
Unknown
Doppler factor
Unknown
Orbital elements
Apogee altitude
485.966 km
Perigee altitude
484.082 km
Semi-major axis
6,863.161 km
Eccentricity
0.00014
Inclination
42.9989°
RAAN
141.3015°
Arg. of periapsis
269.8509°
True anomaly
90.23433°
Mean anomaly
90.2186°
Eccentric anomaly
90.22647°
Mean motion
3.81731 °/min
Orbital period
94.31 mins
BSTAR
0.00080056
Loading maneuver chart data...
Computing Atmospheric mass density...
Loading historical data...
Loading historical data...
Loading historical data...
Loading historical data...
Loading historical data...
Loading historical data...
Loading historical data...

Documentation

Showing up to 5 results
|